Location: Spring Creek
(38.2870°N, 100.2160°W)
Time: 07:50:15
(UTC+00:00)

Cosmos 1464 Rocket - Pass Details

Date: 08 May 2021
Orbit: 953 x 1001 km, 82.9° (Epoch: 21 June)

Event Time Altitude Azimuth Distance (km) Brightness Sun altitude
Rises 11:02:44 0° 349° (N) 3,638 7.2 -6.7°
Reaches altitude 10° 11:05:15 10° 346° (NNW) 2,692 6.5 -6.3°
Maximum altitude 11:11:18 63° 267° (W) 1,068 4.0 -5.3°
Drops below altitude 10° 11:17:22 10° 188° (S) 2,700 6.0 -4.2°
Sets 11:19:54 0° 185° (S) 3,650 6.7 -3.7°
